When you browse on this site, cookies collect data to enhance your experience and personalize the content and advertising you see.
Visit our Privacy Policy to learn more. By continuing to use the site, you agree to this use of cookies and data.
  • In Lithuania
  • List of Countries
  • For 7 days
  • Water Temperature
  • Satellite Maps
  • Weather Map
  • Weather Widgets
  • user-avatar
    Login

    Hourly Weather Mochudi

    Today, 18 June, Tuesday

    Time Temperature Precipitation Wind Pressure Humidity
    00:00 +12°C° 0 mm 1 mps 686 mmHg 38%
    01:00 +11°C° 0 mm 1 mps 686 mmHg 39%
    02:00 +11°C° 0 mm 1 mps 685 mmHg 40%
    03:00 +10°C° 0 mm 1 mps 685 mmHg 40%
    04:00 +10°C° 0 mm 1 mps 685 mmHg 41%
    05:00 +10°C° 0 mm 1 mps 685 mmHg 41%
    06:00 +10°C° 0 mm 1 mps 685 mmHg 40%
    07:00 +11°C° 0 mm 1 mps 686 mmHg 38%
    08:00 +11°C° 0 mm 1 mps 687 mmHg 36%
    09:00 +15°C° 0 mm 1 mps 687 mmHg 30%
    10:00 +18°C° 0 mm 2 mps 688 mmHg 24%
    11:00 +21°C° 0 mm 2 mps 689 mmHg 17%
    12:00 +23°C° 0 mm 2 mps 688 mmHg 15%
    13:00 +24°C° 0 mm 2 mps 687 mmHg 13%
    14:00 +26°C° 0 mm 2 mps 687 mmHg 11%
    15:00 +24°C° 0 mm 1 mps 686 mmHg 12%
    16:00 +23°C° 0 mm 1 mps 686 mmHg 13%
    17:00 +22°C° 0 mm 1 mps 685 mmHg 14%
    18:00 +20°C° 0 mm 1 mps 685 mmHg 17%
    19:00 +18°C° 0 mm 1 mps 685 mmHg 19%
    20:00 +15°C° 0 mm 1 mps 685 mmHg 21%
    21:00 +14°C° 0 mm 1 mps 686 mmHg 22%
    22:00 +13°C° 0 mm 1 mps 686 mmHg 23%
    23:00 +13°C° 0 mm 1 mps 686 mmHg 24%

    Tomorrow, 19 June, Wednesday

    Time Temperature Precipitation Wind Pressure Humidity
    00:00 +12°C° 0 mm 1 mps 686 mmHg 26%
    01:00 +10°C° 0 mm 2 mps 686 mmHg 28%
    02:00 +9°C° 0 mm 2 mps 686 mmHg 31%
    03:00 +9°C° 0 mm 2 mps 686 mmHg 35%
    04:00 +9°C° 0 mm 1 mps 686 mmHg 39%
    05:00 +8°C° 0 mm 1 mps 686 mmHg 43%
    06:00 +9°C° 0 mm 1 mps 687 mmHg 43%
    07:00 +9°C° 0 mm 1 mps 687 mmHg 43%
    08:00 +10°C° 0 mm 1 mps 688 mmHg 44%
    09:00 +13°C° 0 mm 2 mps 689 mmHg 38%
    10:00 +16°C° 0 mm 3 mps 689 mmHg 32%
    11:00 +19°C° 0 mm 4 mps 690 mmHg 26%
    12:00 +21°C° 0 mm 4 mps 689 mmHg 23%
    13:00 +22°C° 0 mm 4 mps 688 mmHg 21%
    14:00 +24°C° 0 mm 3 mps 688 mmHg 18%
    15:00 +22°C° 0 mm 3 mps 688 mmHg 19%
    16:00 +21°C° 0 mm 2 mps 687 mmHg 20%
    17:00 +20°C° 0 mm 2 mps 687 mmHg 21%
    18:00 +19°C° 0 mm 1 mps 687 mmHg 25%
    19:00 +16°C° 0 mm 1 mps 687 mmHg 28%
    20:00 +12°C° 0 mm 0 mps 687 mmHg 31%
    21:00 +12°C° 0 mm 0 mps 687 mmHg 32%
    22:00 +13°C° 0 mm 1 mps 687 mmHg 33%
    23:00 +12°C° 0 mm 1 mps 687 mmHg 34%

    Day after tomorrow, 20 June, Thursday

    Time Temperature Precipitation Wind Pressure Humidity
    00:00 +11°C° 0 mm 1 mps 687 mmHg 35%
    01:00 +10°C° 0 mm 1 mps 687 mmHg 37%
    02:00 +9°C° 0 mm 1 mps 687 mmHg 39%
    03:00 +9°C° 0 mm 1 mps 686 mmHg 43%
    04:00 +7°C° 0 mm 0 mps 686 mmHg 46%
    05:00 +7°C° 0 mm 0 mps 686 mmHg 50%
    06:00 +7°C° 0 mm 0 mps 686 mmHg 50%
    07:00 +8°C° 0 mm 0 mps 687 mmHg 50%
    08:00 +10°C° 0 mm 1 mps 688 mmHg 50%
    09:00 +13°C° 0 mm 1 mps 688 mmHg 46%
    10:00 +16°C° 0 mm 1 mps 688 mmHg 41%
    11:00 +20°C° 0 mm 1 mps 689 mmHg 37%
    12:00 +20°C° 0 mm 2 mps 688 mmHg 32%
    13:00 +23°C° 0 mm 2 mps 688 mmHg 26%
    14:00 +24°C° 0 mm 2 mps 687 mmHg 21%
    15:00 +23°C° 0 mm 2 mps 687 mmHg 21%
    16:00 +23°C° 0 mm 1 mps 686 mmHg 22%
    17:00 +22°C° 0 mm 1 mps 686 mmHg 22%
    18:00 +20°C° 0 mm 1 mps 686 mmHg 26%
    19:00 +15°C° 0 mm 0 mps 686 mmHg 30%
    20:00 +13°C° 0 mm 0 mps 686 mmHg 34%
    21:00 +12°C° 0 mm 0 mps 686 mmHg 35%
    22:00 +12°C° 0 mm 0 mps 686 mmHg 37%
    23:00 +11°C° 0 mm 0 mps 686 mmHg 39%

    21 June, Friday

    Time Temperature Precipitation Wind Pressure Humidity
    00:00 +10°C° 0 mm 0 mps 686 mmHg 40%
    01:00 +11°C° 0 mm 1 mps 686 mmHg 42%
    02:00 +10°C° 0 mm 1 mps 685 mmHg 44%
    03:00 +9°C° 0 mm 1 mps 685 mmHg 48%
    04:00 +9°C° 0 mm 1 mps 685 mmHg 51%
    05:00 +8°C° 0 mm 1 mps 685 mmHg 55%
    06:00 +8°C° 0 mm 1 mps 686 mmHg 56%
    07:00 +9°C° 0 mm 1 mps 687 mmHg 56%
    08:00 +9°C° 0 mm 0 mps 687 mmHg 56%
    09:00 +13°C° 0 mm 1 mps 688 mmHg 50%
    10:00 +16°C° 0 mm 1 mps 688 mmHg 44%
    11:00 +20°C° 0 mm 1 mps 688 mmHg 37%
    12:00 +21°C° 0 mm 1 mps 688 mmHg 32%
    13:00 +23°C° 0 mm 1 mps 687 mmHg 27%
    14:00 +23°C° 0 mm 0 mps 687 mmHg 22%
    15:00 +22°C° 0 mm 0 mps 686 mmHg 23%
    16:00 +23°C° 0 mm 1 mps 685 mmHg 24%
    17:00 +21°C° 0 mm 1 mps 685 mmHg 24%
    18:00 +19°C° 0 mm 1 mps 684 mmHg 28%
    19:00 +16°C° 0 mm 1 mps 684 mmHg 32%
    20:00 +13°C° 0 mm 0 mps 684 mmHg 35%
    21:00 +14°C° 0 mm 1 mps 684 mmHg 36%
    22:00 +13°C° 0 mm 1 mps 684 mmHg 37%
    23:00 +13°C° 0 mm 1 mps 684 mmHg 38%

    22 June, Saturday

    Time Temperature Precipitation Wind Pressure Humidity
    00:00 +12°C° 0 mm 1 mps 684 mmHg 38%
    01:00 +12°C° 0 mm 2 mps 683 mmHg 38%
    02:00 +10°C° 0 mm 2 mps 683 mmHg 38%
    03:00 +10°C° 0 mm 2 mps 683 mmHg 38%
    04:00 +9°C° 0 mm 2 mps 683 mmHg 38%
    05:00 +9°C° 0 mm 2 mps 683 mmHg 37%
    06:00 +9°C° 0 mm 2 mps 684 mmHg 36%
    07:00 +10°C° 0 mm 2 mps 684 mmHg 34%
    08:00 +10°C° 0 mm 2 mps 685 mmHg 33%
    09:00 +15°C° 0 mm 2 mps 685 mmHg 28%
    10:00 +18°C° 0 mm 2 mps 686 mmHg 23%
    11:00 +22°C° 0 mm 3 mps 687 mmHg 17%
    12:00 +24°C° 0 mm 3 mps 686 mmHg 16%
    13:00 +25°C° 0 mm 3 mps 686 mmHg 14%
    14:00 +27°C° 0 mm 4 mps 686 mmHg 12%
    15:00 +26°C° 0 mm 3 mps 685 mmHg 13%
    16:00 +25°C° 0 mm 3 mps 685 mmHg 14%
    17:00 +23°C° 0 mm 2 mps 685 mmHg 15%
    18:00 +20°C° 0 mm 3 mps 685 mmHg 23%
    19:00 +18°C° 0 mm 3 mps 685 mmHg 31%
    20:00 +14°C° 0 mm 3 mps 685 mmHg 38%
    21:00 +13°C° 0 mm 4 mps 686 mmHg 47%
    22:00 +13°C° 0 mm 4 mps 686 mmHg 56%
    23:00 +12°C° 0 mm 5 mps 687 mmHg 65%

    23 June, Sunday

    Time Temperature Precipitation Wind Pressure Humidity
    00:00 +10°C° 0 mm 5 mps 687 mmHg 67%
    01:00 +10°C° 0 mm 4 mps 687 mmHg 69%
    02:00 +9°C° 0 mm 3 mps 687 mmHg 71%
    03:00 +8°C° 0 mm 3 mps 687 mmHg 75%
    04:00 +8°C° 0 mm 3 mps 687 mmHg 80%
    05:00 +7°C° 0 mm 3 mps 687 mmHg 84%
    06:00 +7°C° 0 mm 3 mps 688 mmHg 83%
    07:00 +7°C° 0 mm 3 mps 688 mmHg 82%
    08:00 +8°C° 0 mm 3 mps 689 mmHg 81%
    09:00 +10°C° 0 mm 4 mps 689 mmHg 70%
    10:00 +12°C° 0 mm 4 mps 690 mmHg 59%
    11:00 +15°C° 0 mm 5 mps 690 mmHg 48%
    12:00 +16°C° 0 mm 5 mps 690 mmHg 44%
    13:00 +17°C° 0 mm 5 mps 689 mmHg 41%
    14:00 +19°C° 0 mm 4 mps 689 mmHg 37%
    15:00 +19°C° 0 mm 4 mps 688 mmHg 38%
    16:00 +18°C° 0 mm 3 mps 688 mmHg 39%
    17:00 +18°C° 0 mm 3 mps 688 mmHg 39%
    18:00 +16°C° 0 mm 3 mps 688 mmHg 47%
    19:00 +14°C° 0 mm 2 mps 688 mmHg 54%
    20:00 +10°C° 0 mm 2 mps 687 mmHg 61%
    21:00 +10°C° 0 mm 2 mps 688 mmHg 66%
    22:00 +9°C° 0 mm 2 mps 688 mmHg 70%
    23:00 +9°C° 0 mm 1 mps 688 mmHg 75%
    Show more